This is the latest recevied weather packets stored in our database for station/object GW1542. If no packets are shown the sender has not sent any weather packets the latest 10 day(s).
| Time | Temp. | Humidity | Pressure | Rain* | Wind** | Luminosity | Snow |
|---|---|---|---|---|---|---|---|
| 1777946597 | 10° C | 77% | 1014.2 hPa | 0 mm | - | - | - |
| 1777945158 | 10° C | 76% | 1013.8 hPa | 0 mm | - | - | - |
| 1777943737 | 10.56° C | 74% | 1013.5 hPa | 0 mm | - | - | - |
| 1777943011 | 11.11° C | 73% | 1013.2 hPa | 0 mm | - | - | - |
| 1777940113 | 14.44° C | 58% | 1013.5 hPa | 0 mm | - | - | - |
| 1777939035 | 16.11° C | 54% | 1013.2 hPa | 0 mm | - | - | - |
| 1777937622 | 16.67° C | 52% | 1013.2 hPa | 0 mm | - | - | - |
| 1777935107 | 17.78° C | 49% | 1012.8 hPa | 0 mm | - | - | - |
| 1777934376 | 18.33° C | 47% | 1013.2 hPa | 0 mm | - | - | - |
| 1777933996 | 17.78° C | 49% | 1013.2 hPa | 0 mm | - | - | - |
| 1777932196 | 16.67° C | 52% | 1013.2 hPa | 0 mm | - | - | - |
| 1777929328 | 16.67° C | 55% | 1013.2 hPa | 0 mm | - | - | - |
| 1777928990 | 17.22° C | 54% | 1013.2 hPa | 0 mm | - | - | - |
| 1777927172 | 17.78° C | 43% | 1012.5 hPa | 0 mm | - | - | - |
| 1777925741 | 18.89° C | 42% | 1012.5 hPa | 0 mm | - | - | - |
| 1777923577 | 18.89° C | 42% | 1012.8 hPa | 0 mm | - | - | - |
| 1777922842 | 20° C | 41% | 1012.8 hPa | 0 mm | - | - | - |
| 1777921789 | 18.33° C | 45% | 1013.2 hPa | 0 mm | - | - | - |
| 1777921054 | 18.33° C | 47% | 1013.2 hPa | 0 mm | - | - | - |
| 1777920335 | 17.78° C | 48% | 1013.2 hPa | 0 mm | - | - | - |
| 1777917800 | 17.78° C | 48% | 1013.5 hPa | 0 mm | - | - | - |
| 1777917468 | 17.22° C | 51% | 1013.8 hPa | 0 mm | - | - | - |
| 1777915633 | 16.11° C | 51% | 1014.2 hPa | 0 mm | - | - | - |
| 1777913498 | 15.56° C | 49% | 1014.5 hPa | 0 mm | - | - | - |
| 1777911690 | 15.56° C | 47% | 1014.5 hPa | 0 mm | - | - | - |
* Rain since midnight (hover to see other rain measurements)
** Current wind speed in m/s (hover to see current wind gust speed)